Flag for Norway Weather past 2 weeks in Finse, Norway

Now
39 °F

Chilly.


Feels Like: 39 °F
Forecast: 41 / 53 °F
Wind: 1 mph from Northwest

Location: Finsevatn

Current Time: Jul 5, 2015 at 7:20:30 AM

Latest Report: Jul 5, 2015 at 6:00 AM


Visibility: N/A

Pressure: 30.20 "Hg (25.97 "Hg at 1221m altitude)

Humidity: 87%

Dew point: 35 °F

Location of FinseLocation

Historic Weather in Finse — Graph

°F

Finse temperature yesterday

Maximum temperature yesterday: 60 °F (at 4:00 PM)
Minimum temperature yesterday: 36 °F (at 6:00 AM)
Average temperature yesterday: 47 °F

Past Weeks' High & Low Weather Summary

 TemperatureHumidityPressure
High60 °F (Jul 2, 2:00 PM)97% (Jun 24, 4:00 AM)30.39 "Hg (Jun 24, 4:00 AM)
Low27 °F (Jun 21, 4:00 AM)41% (Jun 27, 4:00 PM)29.68 "Hg (Jun 23, 3:00 PM)
Average42 °F81%30.03 "Hg
* Reported Jun 20 4:00 AM — Jul 5 4:00 AM, Finse, Weather by CustomWeather, © 2015

Note: Actual official high and low records may vary slightly from our data, if they occured in-between our weather recording intervals... More about our weather records

Advertising

Finse weather history for previous 24 hours

 ConditionsComfort  
Time TempWeatherWind HumidityBarometerVisibility
4:00 AM
Sun, Jul 5
38 °FChilly.2 mph88%30.22 "HgN/A
3:00 AM37 °FChilly.1 mph88%30.23 "HgN/A
2:00 AM39 °FChilly.2 mph83%30.21 "HgN/A
1:00 AM39 °FChilly.1 mph83%30.21 "HgN/A
12:00 AM40 °FQuite cool.1 mph80%30.21 "HgN/A
10:00 PM
Sat, Jul 4
41 °FQuite cool.1 mph81%30.20 "HgN/A
9:00 PM44 °FQuite cool.1 mph76%30.17 "HgN/A
8:00 PM47 °FCool.2 mph69%30.16 "HgN/A
7:00 PM53 °FCool.1 mph59%30.11 "HgN/A
6:00 PM57 °FRefreshingly cool.3 mph57%30.08 "HgN/A
5:00 PM56 °FRefreshingly cool.3 mph56%30.09 "HgN/A
4:00 PM60 °FRefreshingly cool.2 mph51%30.06 "HgN/A
3:00 PM56 °FCool.1 mph62%30.10 "HgN/A
2:00 PM54 °FCool.5 mph70%30.14 "HgN/A
1:00 PM57 °FCool.1 mph63%30.11 "HgN/A
12:00 PM56 °FCool.1 mph67%30.13 "HgN/A
11:00 AM56 °FCool.1 mph63%30.14 "HgN/A
10:00 AM51 °FCool.No wind70%30.19 "HgN/A
9:00 AM45 °FQuite cool.No wind79%30.24 "HgN/A
8:00 AM41 °FQuite cool.1 mph90%30.29 "HgN/A
7:00 AM38 °FChilly.1 mph94%30.32 "HgN/A
Weather by CustomWeather, © 2015

See weather overviewHow to use our weather pages